Location: Deer Lodge Site
(39.6809°N, 119.9392°W)
Time: 23:19:15
(UTC-08:00)

Amateur Radio Satellites - All Passes

Search period start: 18 December 2014 22:49
Search period end: 19 December 2014 22:49
Location: Deer Lodge Site, 39.6809°N, 119.9392°W

Satellite Date Start Highest point End Downlink Frequencies (MHz)
Time Altitude Azimuth
AIST 2 18 Dec 22:49:24 22:53:35 47° 54° (NE) 22:57:40 435.215
ZACube-1 18 Dec 22:51:58 22:52:54 11° 270° (W) 22:53:51 437.345
CUSAT 1 18 Dec 22:52:41 22:55:32 12° 279° (W) 22:58:29 437.405
BEESAT 3 18 Dec 22:53:56 22:58:04 63° 242° (WSW) 23:02:08 437.485
POPSAT HIP 1 18 Dec 22:56:51 23:01:07 75° 102° (ESE) 23:05:23 437.405
UNISAT 6 18 Dec 23:01:33 23:06:12 64° 286° (WNW) 23:10:52 437.425
SWISSCUBE 18 Dec 23:16:20 23:18:31 13° 62° (ENE) 23:20:42 437.505
ITUPSAT 1 18 Dec 23:16:31 23:18:14 12° 61° (ENE) 23:19:57 437.325
SPROUT 18 Dec 23:17:51 23:22:05 68° 75° (ENE) 23:26:21 437.525
TISAT 1 18 Dec 23:20:56 23:25:09 81° 76° (ENE) 23:29:22 437.305
DUCHIFAT 1 18 Dec 23:26:01 23:30:08 50° 287° (WNW) 23:34:15 145.980
BEESAT 2 18 Dec 23:32:29 23:36:02 27° 247° (WSW) 23:39:33 435.950
ANTELSAT 18 Dec 23:33:43 23:37:49 30° 291° (WNW) 23:41:56 437.575/2403.000
BUGSAT 1 18 Dec 23:34:35 23:38:29 48° 287° (WNW) 23:42:24 437.445
QB50P2 18 Dec 23:38:19 23:42:14 36° 289° (WNW) 23:46:08 145.880/145.840
CUBEBUG 1 18 Dec 23:40:08 23:42:49 16° 267° (W) 23:45:30 437.445
BEESAT 18 Dec 23:40:10 23:43:43 21° 65° (ENE) 23:47:16 436.000
PCSat 18 Dec 23:42:15 23:47:38 66° 245° (WSW) 23:52:58 145.827
POLYITAN 1 18 Dec 23:46:35 23:50:19 30° 290° (WNW) 23:54:03 437.675
NANOSAT C BR1 18 Dec 23:50:40 23:54:15 27° 291° (WNW) 23:57:51 145.865
AUBIESAT-1 19 Dec 00:00:17 00:04:04 24° 61° (ENE) 00:07:54 437.475
QB50P1 19 Dec 00:05:10 00:08:14 20° 293° (WNW) 00:11:17 145.935-145.965
TIGRISAT 19 Dec 00:11:55 00:14:17 14° 297° (WNW) 00:16:39 435.000
M-CUBED/EXP-1 PRIME 19 Dec 00:23:34 00:28:05 42° 66° (ENE) 00:32:43 437.505
YUBILEINY 19 Dec 00:27:39 00:36:23 72° 279° (W) 00:45:07 435.215
AIST 2 19 Dec 00:29:10 00:31:47 16° 251° (WSW) 00:34:23 435.215
ITUPSAT 1 19 Dec 00:50:38 00:55:27 79° 257° (WSW) 01:00:17 437.325
SWISSCUBE 19 Dec 00:50:59 00:55:46 70° 258° (WSW) 01:00:34 437.505
O/OREOS (USA 219) 19 Dec 00:57:29 01:01:56 90° 111° (ESE) 01:06:25 437.305
KKS-1 19 Dec 01:13:27 01:17:30 36° 71° (ENE) 01:21:34 437.445
STARS 19 Dec 01:14:21 01:17:54 25° 68° (ENE) 01:21:29 437.465
BEESAT 19 Dec 01:16:45 01:21:15 41° 261° (W) 01:25:48 436.000
Gurwin Techsat 1B 19 Dec 01:24:42 01:27:18 14° 90° (E) 01:29:52 435.225
Oscar 19 19 Dec 01:26:47 01:31:58 66° 102° (ESE) 01:37:07 437.125/150
AUBIESAT-1 19 Dec 01:34:12 01:38:42 42° 257° (WSW) 01:43:21 437.475
ITAMSAT 1 19 Dec 01:38:49 01:43:22 31° 97° (E) 01:47:54 435.822/435.867
M-CUBED/EXP-1 PRIME 19 Dec 01:59:29 02:03:11 22° 262° (W) 02:07:00 437.505
AIST 1 19 Dec 02:25:17 02:25:48 10° 68° (ENE) 02:26:19
YUBILEINY 19 Dec 02:31:01 02:34:54 13° 301° (WNW) 02:38:48 435.215
HORYU 2 19 Dec 02:35:47 02:39:29 24° 95° (E) 02:43:09 437.375
STARS 19 Dec 02:50:30 02:54:16 28° 264° (W) 02:58:03 437.465
KKS-1 19 Dec 02:51:03 02:54:14 19° 266° (W) 02:57:26 437.445
AO-7 19 Dec 02:55:12 03:01:08 21° 92° (E) 03:07:01 29.400- 29.500
VERMONT LUNAR 19 Dec 02:58:53 03:01:42 22° 150° (SSE) 03:04:31 437.305
Gurwin Techsat 1B 19 Dec 03:02:27 03:07:45 70° 286° (WNW) 03:13:00 435.225
PHONESAT 2.4 19 Dec 03:04:41 03:07:08 17° 147° (SSE) 03:09:34 2401.200-2431.200
Oscar 19 19 Dec 03:07:43 03:10:43 16° 298° (WNW) 03:13:44 437.125/150
ITAMSAT 1 19 Dec 03:18:17 03:22:47 31° 292° (WNW) 03:27:16 435.822/435.867
MOZHAYETS 4 19 Dec 03:46:13 03:50:40 48° 73° (ENE) 03:55:09
AIST 1 19 Dec 03:59:41 04:03:55 63° 265° (W) 04:08:06
HORYU 2 19 Dec 04:12:10 04:16:07 30° 291° (WNW) 04:20:03 437.375
GONETS M04 19 Dec 04:27:51 04:34:55 28° 82° (E) 04:41:58
VERMONT LUNAR 19 Dec 04:36:12 04:39:44 76° 165° (SSE) 04:43:16 437.305
STRAND 1 19 Dec 04:36:51 04:39:09 13° 60° (ENE) 04:41:27 437.568
PHONESAT 2.4 19 Dec 04:41:50 04:45:25 63° 162° (SSE) 04:49:01 2401.200-2431.200
AO-7 19 Dec 04:46:17 04:54:41 79° 290° (WNW) 05:03:01 29.400- 29.500
SO-50 19 Dec 04:49:45 04:53:05 18° 42° (NE) 04:56:24 436.795
CUTE-I 19 Dec 04:56:58 04:58:21 11° 89° (E) 04:59:44 437.470
CUBESAT XI-V 19 Dec 05:05:18 05:09:04 25° 68° (ENE) 05:12:49 437.345
PRISM 19 Dec 05:07:53 05:12:01 56° 74° (ENE) 05:16:11 437.425
JAS-2 19 Dec 05:08:53 05:14:36 76° 102° (ESE) 05:19:50 435.910
MOZHAYETS 4 19 Dec 05:25:18 05:28:08 16° 268° (W) 05:31:00
Cubesat XI-IV 19 Dec 06:00:03 06:05:12 48° 100° (E) 06:10:19 437.490
STRAND 1 19 Dec 06:12:33 06:17:39 78° 257° (WSW) 06:22:47 437.568
VERMONT LUNAR 19 Dec 06:14:35 06:18:07 76° 3° (N) 06:21:39 437.305
PHONESAT 2.4 19 Dec 06:20:30 06:24:08 76° 359° (N) 06:27:46 2401.200-2431.200
GONETS M04 19 Dec 06:22:21 06:31:03 61° 281° (WNW) 06:39:49
SO-50 19 Dec 06:29:15 06:34:08 72° 241° (WSW) 06:39:01 436.795
CUTE-I 19 Dec 06:33:42 06:39:02 84° 285° (WNW) 06:44:20 437.470
AO-7 19 Dec 06:41:01 06:46:10 18° 310° (NW) 06:51:19 29.400- 29.500
CUBESAT XI-V 19 Dec 06:42:08 06:46:20 32° 263° (W) 06:50:32 437.345
PRISM 19 Dec 06:46:25 06:47:53 12° 269° (W) 06:49:21 437.425
JAS-2 19 Dec 06:56:02 06:58:50 14° 303° (WNW) 07:01:32 435.910
Cubesat XI-IV 19 Dec 07:40:59 07:44:55 22° 296° (WNW) 07:48:50 437.490
GOMX 1 19 Dec 07:45:08 07:45:49 10° 90° (E) 07:46:31 467.674
VERMONT LUNAR 19 Dec 07:52:58 07:56:26 55° 199° (SSW) 07:59:54 437.305
PHONESAT 2.4 19 Dec 07:59:15 08:02:52 68° 196° (SSW) 08:06:29 2401.200-2431.200
HO-68 19 Dec 08:00:50 08:06:49 28° 95° (E) 08:12:44 435.675
COMPASS 1 19 Dec 08:01:23 08:03:06 12° 91° (E) 08:04:49 437.405
SEEDS 19 Dec 08:03:59 08:06:40 16° 92° (E) 08:09:20 437.485
CUTE 1.7 + AOD 2 19 Dec 08:04:59 08:08:08 19° 93° (E) 08:11:15 437.475
MaSat-1 19 Dec 08:12:45 08:13:51 12° 108° (ESE) 08:14:55 437.345
DOVE 4 19 Dec 08:15:28 08:18:36 17° 93° (E) 08:21:49 437.250
CUTE-I 19 Dec 08:16:55 08:18:14 11° 302° (WNW) 08:19:33 437.470
GONETS M04 19 Dec 08:27:46 08:29:58 11° 304° (WNW) 08:32:10
Oscar 11 19 Dec 08:36:50 08:39:03 14° 91° (E) 08:41:16 145.826/435.025
CUSAT 1 19 Dec 08:37:37 08:39:17 13° 80° (E) 08:41:07 437.405
UKube-1 19 Dec 08:45:02 08:46:32 12° 91° (E) 08:48:02 .
BRITE-PL 19 Dec 08:45:22 08:50:01 64° 101° (E) 08:55:03 437.365/2234.400
CUBEBUG 2 19 Dec 08:46:26 08:48:18 12° 91° (E) 08:50:11 437.445
CINEMA 3 19 Dec 08:51:29 08:55:19 24° 95° (E) 08:59:15 145.822/145.860
ANTELSAT 19 Dec 08:56:19 08:59:35 21° 66° (ENE) 09:02:56 437.575/2403.000
QB50P2 19 Dec 08:57:00 08:59:03 14° 64° (ENE) 09:01:07 145.880/145.840
AAUSAT CUBESAT 2 19 Dec 09:00:41 09:04:51 52° 100° (E) 09:08:58 437.432
ZACube-1 19 Dec 09:03:20 09:05:28 13° 91° (E) 09:07:36 437.345
POLYITAN 1 19 Dec 09:04:39 09:07:16 16° 66° (ENE) 09:09:54 437.675
NANOSAT C BR1 19 Dec 09:08:02 09:10:49 18° 66° (ENE) 09:13:36 145.865
CANX-2 19 Dec 09:08:51 09:13:10 71° 284° (WNW) 09:17:27 2200.000
GOMX 1 19 Dec 09:19:35 09:24:19 80° 284° (WNW) 09:29:23 467.674
DANDE 19 Dec 09:20:24 09:23:23 32° 89° (E) 09:27:10 436.750
QB50P1 19 Dec 09:21:27 09:24:51 24° 69° (ENE) 09:28:16 145.935-145.965
UWE-3 19 Dec 09:25:59 09:29:57 28° 96° (E) 09:33:57 435.000/436.395/437.385
FUNcube-1 19 Dec 09:29:11 09:32:55 25° 95° (E) 09:36:41 145.935
O/OREOS (USA 219) 19 Dec 09:30:15 09:32:59 16° 55° (NE) 09:35:43 437.305
TIGRISAT 19 Dec 09:31:43 09:35:52 49° 73° (ENE) 09:40:09 435.000
VERMONT LUNAR 19 Dec 09:32:22 09:34:18 14° 214° (SW) 09:36:13 437.305
COMPASS 1 19 Dec 09:34:58 09:39:08 53° 286° (WNW) 09:43:16 437.405
PHONESAT 2.4 19 Dec 09:38:31 09:41:12 19° 211° (SSW) 09:43:52 2401.200-2431.200
SEEDS 19 Dec 09:38:37 09:42:39 41° 288° (WNW) 09:46:40 437.485
CUTE 1.7 + AOD 2 19 Dec 09:40:13 09:44:07 34° 289° (WNW) 09:48:01 437.475
AISAT 19 Dec 09:41:35 09:44:37 18° 94° (E) 09:47:39 437.250
MaSat-1 19 Dec 09:46:02 09:47:07 12° 302° (WNW) 09:48:10 437.345
DX 1 19 Dec 09:46:03 09:50:22 61° 101° (ESE) 09:54:39 434.975-435.025
HO-68 19 Dec 09:47:52 09:54:47 54° 292° (WNW) 10:01:39 435.675
POPSAT HIP 1 19 Dec 09:49:10 09:53:14 49° 73° (ENE) 09:57:18 437.405
DOVE 4 19 Dec 09:51:57 09:56:32 50° 287° (WNW) 10:01:22 437.250
UNISAT 6 19 Dec 09:59:54 10:04:14 79° 258° (WSW) 10:08:43 437.425
DELFI C3 19 Dec 10:00:14 10:04:22 77° 284° (WNW) 10:08:28 145.870
50 SAT 19 Dec 10:02:55 10:06:24 25° 96° (E) 10:09:53 437.505
Oscar 11 19 Dec 10:11:16 10:15:30 50° 287° (WNW) 10:19:42 145.826/435.025
HUMSAT D 19 Dec 10:13:25 10:17:34 44° 99° (E) 10:21:43 437.325/437.525
DUCHIFAT 1 19 Dec 10:17:48 10:21:59 76° 258° (WSW) 10:26:12 145.980
CUSAT 1 19 Dec 10:18:24 10:21:37 34° 289° (WNW) 10:25:48 437.405
UKube-1 19 Dec 10:18:47 10:23:03 58° 286° (WNW) 10:27:17 .
CUBEBUG 2 19 Dec 10:20:46 10:25:21 64° 285° (WNW) 10:30:02 437.445
BUGSAT 1 19 Dec 10:23:50 10:27:57 79° 258° (WSW) 10:32:02 437.445
RS-15 19 Dec 10:24:27 10:33:00 27° 103° (ESE) 10:41:30 29.354- 29.394
BRITE-PL 19 Dec 10:25:45 10:28:07 14° 295° (WNW) 10:30:33 437.365/2234.400
CINEMA 3 19 Dec 10:28:16 10:32:32 35° 289° (WNW) 10:36:56 145.822/145.860
QB50P2 19 Dec 10:30:25 10:34:31 52° 260° (W) 10:38:39 145.880/145.840
ANTELSAT 19 Dec 10:32:12 10:36:09 34° 263° (W) 10:40:13 437.575/2403.000
ESTCUBE 1 19 Dec 10:32:27 10:36:11 25° 95° (E) 10:39:53 437.505/2401.250
VELOX 1 19 Dec 10:34:37 10:39:02 69° 102° (ESE) 10:43:26 145.980
ZACube-1 19 Dec 10:37:42 10:42:08 57° 286° (WNW) 10:46:38 437.345
AAUSAT CUBESAT 2 19 Dec 10:37:58 10:40:03 14° 296° (WNW) 10:42:07 437.432
POLYITAN 1 19 Dec 10:38:54 10:42:52 41° 261° (W) 10:46:53 437.675
YUBILEINY 19 Dec 10:38:54 10:47:26 56° 78° (ENE) 10:55:54 435.215
NANOSAT C BR1 19 Dec 10:42:28 10:46:23 38° 262° (W) 10:50:20 145.865
QB50P1 19 Dec 10:57:05 11:00:38 26° 264° (W) 11:04:12 145.935-145.965
UWE-3 19 Dec 11:02:31 11:06:23 28° 291° (WNW) 11:10:19 435.000/436.395/437.385
FUNcube-1 19 Dec 11:05:18 11:09:14 30° 290° (WNW) 11:13:12 145.935
DANDE 19 Dec 11:05:30 11:07:18 13° 299° (WNW) 11:09:21 436.750
SPROUT 19 Dec 11:07:29 11:09:22 13° 91° (E) 11:11:16 437.525
Oscar 19 19 Dec 11:08:08 11:09:25 11° 59° (ENE) 11:10:41 437.125/150
O/OREOS (USA 219) 19 Dec 11:08:19 11:12:43 54° 252° (WSW) 11:17:08 437.305
TISAT 1 19 Dec 11:08:30 11:10:40 14° 92° (E) 11:12:50 437.305
TIGRISAT 19 Dec 11:10:40 11:12:56 14° 269° (W) 11:15:14 435.000
AISAT 19 Dec 11:17:15 11:21:23 39° 289° (WNW) 11:25:30 437.250
DX 1 19 Dec 11:24:16 11:26:04 12° 297° (WNW) 11:27:53 434.975-435.025
POPSAT HIP 1 19 Dec 11:27:31 11:29:24 13° 269° (W) 11:31:18 437.405
CUBEBUG 1 19 Dec 11:28:04 11:32:25 81° 284° (WNW) 11:36:44 437.445
50 SAT 19 Dec 11:38:09 11:41:32 25° 291° (WNW) 11:44:54 437.505
HUMSAT D 19 Dec 11:50:17 11:53:00 17° 294° (WNW) 11:55:44 437.325/437.525
ESTCUBE 1 19 Dec 12:09:09 12:13:00 29° 291° (WNW) 12:16:50 437.505/2401.250
VELOX 1 19 Dec 12:13:34 12:15:02 12° 298° (WNW) 12:16:30 145.980
RS-15 19 Dec 12:33:14 12:44:11 76° 304° (WNW) 12:55:12 29.354- 29.394
YUBILEINY 19 Dec 12:36:31 12:43:41 30° 277° (W) 12:50:53 435.215
SPROUT 19 Dec 12:41:34 12:45:45 52° 286° (WNW) 12:49:56 437.525
PCSat 19 Dec 12:41:48 12:45:22 18° 105° (ESE) 12:48:55 145.827
TISAT 1 19 Dec 12:42:41 12:46:44 47° 287° (WNW) 12:50:47 437.305
Oscar 19 19 Dec 12:42:47 12:47:55 87° 76° (ENE) 12:53:07 437.125/150
Gurwin Techsat 1B 19 Dec 12:44:33 12:48:29 22° 64° (ENE) 12:52:25 435.225
BEESAT 3 19 Dec 12:48:07 12:51:40 29° 113° (ESE) 12:55:16 437.485
AIST 2 19 Dec 12:49:32 12:51:16 12° 108° (ESE) 12:53:01 435.215
SWISSCUBE 19 Dec 12:52:44 12:56:59 31° 97° (E) 13:01:11 437.505
ITUPSAT 1 19 Dec 12:52:44 12:56:52 28° 96° (E) 13:00:57 437.325
ITAMSAT 1 19 Dec 12:55:56 13:00:48 43° 70° (ENE) 13:05:42 435.822/435.867
ISS 19 Dec 13:13:51 13:16:44 29° 134° (SE) 13:19:39 145.825
BEESAT 19 Dec 13:17:42 13:22:23 53° 100° (E) 13:27:01 436.000
AUBIESAT-1 19 Dec 13:19:15 13:22:02 17° 96° (E) 13:24:40 437.475
BEESAT 2 19 Dec 13:26:10 13:30:15 70° 119° (ESE) 13:34:25 435.950
HORYU 2 19 Dec 13:34:03 13:37:25 21° 66° (ENE) 13:40:48 437.375
M-CUBED/EXP-1 PRIME 19 Dec 13:43:00 13:47:02 35° 101° (ESE) 13:50:43 437.505
AO-7 19 Dec 13:53:21 14:00:11 30° 57° (ENE) 14:07:01 29.400- 29.500
JUGNU 19 Dec 14:04:09 14:04:57 10° 180° (S) 14:05:46 437.505
PCSat 19 Dec 14:22:55 14:28:14 59° 301° (WNW) 14:33:37 145.827
Gurwin Techsat 1B 19 Dec 14:22:58 14:28:05 48° 261° (W) 14:33:13 435.225
AIST 2 19 Dec 14:25:09 14:29:20 61° 304° (NW) 14:33:36 435.215
BEESAT 3 19 Dec 14:26:20 14:29:49 26° 311° (NW) 14:33:22 437.485
ITUPSAT 1 19 Dec 14:30:36 14:34:41 29° 292° (WNW) 14:38:44 437.325
SWISSCUBE 19 Dec 14:30:46 14:34:42 26° 293° (WNW) 14:38:36 437.505
ITAMSAT 1 19 Dec 14:36:32 14:40:27 22° 266° (W) 14:44:24 435.822/435.867
GONETS M04 19 Dec 14:40:29 14:43:36 12° 57° (ENE) 14:46:41
STARS 19 Dec 14:40:39 14:45:01 55° 101° (E) 14:49:22 437.465
KKS-1 19 Dec 14:41:36 14:46:06 86° 103° (ESE) 14:50:34 437.445
RS-15 19 Dec 14:50:01 14:58:43 26° 331° (NNW) 15:07:35 29.354- 29.394
ISS 19 Dec 14:50:16 14:53:16 32° 331° (NNW) 14:56:17 145.825
AUBIESAT-1 19 Dec 14:53:08 14:57:13 39° 294° (WNW) 15:00:58 437.475
BEESAT 19 Dec 14:56:50 14:59:47 17° 297° (WNW) 15:02:42 436.000
BEESAT 2 19 Dec 15:06:44 15:08:59 14° 317° (NW) 15:11:14 435.950
HORYU 2 19 Dec 15:09:46 15:13:50 35° 262° (W) 15:17:58 437.375
JAS-2 19 Dec 15:18:24 15:25:11 36° 67° (ENE) 15:31:28 435.910
M-CUBED/EXP-1 PRIME 19 Dec 15:18:30 15:21:46 21° 300° (WNW) 15:24:50 437.505
AO-7 19 Dec 15:44:07 15:52:21 65° 256° (WSW) 16:00:40 29.400- 29.500
MOZHAYETS 4 19 Dec 15:44:26 15:46:18 12° 90° (E) 15:48:10
PCSat 19 Dec 16:11:26 16:12:49 11° 322° (NW) 16:14:13 145.827
CUTE-I 19 Dec 16:16:58 16:20:37 19° 63° (ENE) 16:24:16 437.470
STARS 19 Dec 16:18:42 16:21:01 14° 296° (WNW) 16:23:20 437.465
AIST 1 19 Dec 16:28:02 16:32:25 80° 96° (E) 16:36:48
ISS 19 Dec 16:29:21 16:30:39 12° 350° (N) 16:31:57 145.825
GONETS M04 19 Dec 16:33:37 16:42:21 66° 80° (E) 16:50:58
JAS-2 19 Dec 17:02:39 17:10:00 47° 261° (W) 17:16:50 435.910
RS-15 19 Dec 17:09:31 17:16:39 18° 8° (N) 17:23:54 29.354- 29.394
MOZHAYETS 4 19 Dec 17:19:21 17:23:55 62° 286° (WNW) 17:28:27
Cubesat XI-IV 19 Dec 17:21:16 17:26:34 74° 74° (ENE) 17:31:54 437.490
MaSat-1 19 Dec 17:43:33 17:45:08 16° 59° (ENE) 17:46:46 437.345
CUTE-I 19 Dec 17:55:01 18:00:14 55° 259° (W) 18:05:27 437.470
ISS 19 Dec 18:07:01 18:08:24 12° 11° (N) 18:09:47 145.825
STRAND 1 19 Dec 18:24:12 18:28:55 37° 98° (E) 18:33:37 437.568
PRISM 19 Dec 18:27:17 18:31:27 75° 285° (WNW) 18:35:33 437.425
HO-68 19 Dec 18:29:52 18:34:54 21° 57° (ENE) 18:39:55 435.675
GONETS M04 19 Dec 18:31:42 18:38:21 25° 279° (W) 18:44:59
CUBESAT XI-V 19 Dec 18:39:16 18:43:52 66° 101° (E) 18:48:25 437.345
SEEDS 19 Dec 18:57:28 18:58:44 11° 63° (ENE) 19:00:01 437.485
CUTE 1.7 + AOD 2 19 Dec 18:58:35 19:00:44 14° 64° (ENE) 19:02:53 437.475
Cubesat XI-IV 19 Dec 19:04:51 19:07:11 13° 270° (W) 19:09:31 437.490
CUSAT 1 19 Dec 19:13:24 19:19:44 27° 70° (ENE) 19:26:35 437.405
MaSat-1 19 Dec 19:17:17 19:18:21 12° 252° (WSW) 19:19:26 437.345
DOVE 4 19 Dec 19:22:20 19:24:19 13° 64° (ENE) 19:26:18 437.250
RS-15 19 Dec 19:23:15 19:33:32 39° 41° (NE) 19:44:09 29.354- 29.394
Oscar 11 19 Dec 19:32:51 19:33:44 11° 62° (ENE) 19:34:36 145.826/435.025
UKube-1 19 Dec 19:41:17 19:41:41 10° 61° (ENE) 19:42:04 .
ISS 19 Dec 19:42:42 19:45:45 34° 30° (NNE) 19:48:46 145.825
AAUSAT CUBESAT 2 19 Dec 19:51:24 19:55:09 32° 71° (ENE) 19:58:56 437.432
CINEMA 3 19 Dec 19:54:00 19:56:47 18° 66° (ENE) 19:59:36 145.822/145.860
BRITE-PL 19 Dec 19:56:23 20:00:32 64° 75° (ENE) 20:04:38 437.365/2234.400
DANDE 19 Dec 19:59:36 20:06:56 48° 76° (ENE) 20:15:12 436.750
CANX-2 19 Dec 20:00:57 20:05:11 74° 76° (ENE) 20:09:29 2200.000
STRAND 1 19 Dec 20:03:48 20:07:54 25° 294° (WNW) 20:11:59 437.568
HO-68 19 Dec 20:14:38 20:21:49 78° 255° (WSW) 20:29:02 435.675
CUBESAT XI-V 19 Dec 20:18:47 20:20:43 13° 297° (WNW) 20:22:40 437.345
UWE-3 19 Dec 20:23:37 20:26:38 20° 67° (ENE) 20:29:43 435.000/436.395/437.385
COMPASS 1 19 Dec 20:25:29 20:29:42 87° 258° (WSW) 20:33:59 437.405
FUNcube-1 19 Dec 20:25:36 20:28:21 17° 66° (ENE) 20:31:10 145.935
GOMX 1 19 Dec 20:27:48 20:31:58 79° 258° (WSW) 20:36:08 467.674
SEEDS 19 Dec 20:29:47 20:33:59 65° 259° (W) 20:38:14 437.485
CUTE 1.7 + AOD 2 19 Dec 20:32:02 20:36:11 52° 260° (W) 20:40:24 437.475
AISAT 19 Dec 20:39:50 20:42:31 16° 65° (ENE) 20:45:12 437.250
DX 1 19 Dec 20:40:57 20:45:07 48° 72° (ENE) 20:49:18 434.975-435.025
SO-50 19 Dec 20:43:15 20:47:32 45° 116° (ESE) 20:51:59 436.795
DELFI C3 19 Dec 20:47:49 20:51:51 59° 75° (ENE) 20:55:56 145.870
50 SAT 19 Dec 20:51:46 20:54:08 15° 66° (ENE) 20:56:31 437.505
CUSAT 1 19 Dec 20:55:33 21:03:14 70° 264° (W) 21:11:41 437.405
DOVE 4 19 Dec 20:57:40 21:01:40 48° 261° (W) 21:05:43 437.250
Oscar 11 19 Dec 21:04:57 21:09:16 73° 258° (WSW) 21:13:38 145.826/435.025
HUMSAT D 19 Dec 21:05:26 21:08:57 28° 70° (ENE) 21:12:30 437.325/437.525
BEESAT 3 19 Dec 21:08:53 21:11:44 18° 45° (NE) 21:14:34 437.485
UKube-1 19 Dec 21:12:52 21:17:12 76° 257° (WSW) 21:21:33 .
CUBEBUG 2 19 Dec 21:18:37 21:22:46 83° 257° (WSW) 21:27:03 437.445
ISS 19 Dec 21:19:28 21:22:13 25° 227° (SW) 21:24:58 145.825
TIGRISAT 19 Dec 21:26:25 21:28:12 12° 90° (E) 21:29:59 435.000
AAUSAT CUBESAT 2 19 Dec 21:27:48 21:30:52 20° 266° (W) 21:33:59 437.432
PCSat 19 Dec 21:29:39 21:32:51 16° 43° (NE) 21:36:03 145.827
CINEMA 3 19 Dec 21:29:53 21:33:42 36° 263° (W) 21:37:37 145.822/145.860
VELOX 1 19 Dec 21:31:42 21:36:01 55° 73° (ENE) 21:40:20 145.980
ESTCUBE 1 19 Dec 21:31:51 21:35:23 23° 67° (ENE) 21:38:55 437.505/2401.250
ZACube-1 19 Dec 21:33:07 21:37:17 79° 258° (WSW) 21:41:33 437.345
RS-15 19 Dec 21:35:32 21:46:44 70° 245° (WSW) 21:58:27 29.354- 29.394
DANDE 19 Dec 21:43:17 21:50:18 39° 269° (W) 21:58:05 436.750
BEESAT 2 19 Dec 21:47:16 21:51:07 34° 52° (NE) 21:54:55 435.950
YUBILEINY 19 Dec 21:50:47 21:51:56 10° 73° (ENE) 21:53:06 435.215
UNISAT 6 19 Dec 21:53:21 21:57:12 24° 95° (E) 22:01:02 437.425
UWE-3 19 Dec 21:59:12 22:02:57 32° 263° (W) 22:06:48 435.000/436.395/437.385
FUNcube-1 19 Dec 22:00:32 22:04:24 38° 262° (W) 22:08:22 145.935
TISAT 1 19 Dec 22:02:40 22:03:10 10° 62° (ENE) 22:03:40 437.305
DUCHIFAT 1 19 Dec 22:04:51 22:07:50 18° 94° (E) 22:10:49 145.980
HO-68 19 Dec 22:08:08 22:10:32 12° 272° (W) 22:12:57 435.675
BUGSAT 1 19 Dec 22:08:32 22:10:57 15° 93° (E) 22:13:22 437.445
AISAT 19 Dec 22:14:30 22:18:45 47° 260° (W) 22:23:02 437.250
QB50P2 19 Dec 22:17:15 22:20:51 26° 96° (E) 22:24:27 145.880/145.840
DX 1 19 Dec 22:19:16 22:21:37 14° 268° (W) 22:23:58 434.975-435.025
CUBEBUG 1 19 Dec 22:23:26 22:27:47 76° 76° (ENE) 22:32:09 437.445
ANTELSAT 19 Dec 22:24:37 22:29:14 52° 100° (E) 22:33:51 437.575/2403.000
SO-50 19 Dec 22:24:42 22:28:18 23° 315° (NW) 22:32:01 436.795
50 SAT 19 Dec 22:25:14 22:29:00 40° 262° (W) 22:32:50 437.505
POLYITAN 1 19 Dec 22:25:34 22:29:26 32° 97° (E) 22:33:18 437.675
DELFI C3 19 Dec 22:26:51 22:27:29 10° 270° (W) 22:28:08 145.870
NANOSAT C BR1 19 Dec 22:28:33 22:32:27 34° 98° (E) 22:36:20 145.865
HUMSAT D 19 Dec 22:41:29 22:44:43 22° 265° (W) 22:48:00 437.325/437.525
CUSAT 1 19 Dec 22:41:58 22:45:16 13° 279° (W) 22:48:41 437.405
